1501552800.18,33097,20.81,75004.8,8.69,-15.81,-16.31,0,*7C
1501552801.41,33098,20.81,75006.5,8.69,-15.75,-16.23,0,*7B
1501552802.64,33099,20.81,75006.3,8.69,-15.75,-16.31,0,*79
1501552803.87,33100,20.81,75008.8,8.69,-15.75,-16.23,0,*7B
1501552805.1,33101,20.75,75004.5,8.69,-15.89,-16.37,0,*7C
1501552806.32,33102,20.81,75008.8,8.67,-15.95,-16.37,0,*7C
1501552807.52,33103,20.75,75006.5,8.69,-16.03,-16.45,0,*7A
1501552808.77,33104,20.75,75006.5,8.71,-15.89,-16.41,0,*71
1501552810.02,33105,20.81,75006.3,8.71,-15.71,-16.27,0,*77
1501552811.27,33106,20.81,75008.5,8.69,-15.81,-16.23,0,*76
1501552812.52,33107,20.81,75010.0,8.69,-15.81,-16.31,0,*74
1501552813.77,33108,20.75,75006.5,8.69,-15.81,-16.31,0,*7B
1501552815.02,33109,20.75,75006.0,8.67,-15.75,-16.31,0,*7F
1501552816.25,33110,20.81,75012.8,8.69,-15.71,-16.17,0,*79
1501552817.48,33111,20.81,75014.8,8.69,-15.75,-16.23,0,*7B
1501552818.75,33112,20.75,75004.3,8.67,-15.81,-16.23,0,*7D
1501552820.01,33113,20.75,75008.0,8.69,-15.89,-16.31,0,*79
1501552821.26,33114,20.81,75006.0,8.69,-15.81,-16.23,0,*75
1501552822.53,33115,20.81,75010.5,8.67,-15.81,-16.31,0,*79
1501552823.73,33116,20.81,75008.3,8.69,-15.95,-16.37,0,*77
1501552824.95,33117,20.75,75010.8,8.67,-15.95,-16.37,0,*78
1501552826.2,33118,20.81,75010.5,8.67,-15.89,-16.37,0,*7A
1501552827.41,33119,20.75,75008.5,8.69,-15.95,-16.37,0,*78
1501552828.68,33120,20.81,75008.8,8.67,-15.89,-16.23,0,*74
1501552829.91,33121,20.81,75008.8,8.69,-15.71,-16.23,0,*7C
1501552831.11,33122,20.81,75008.8,8.69,-15.95,-16.37,0,*70
1501552832.31,33123,20.81,75006.5,8.69,-15.95,-16.45,0,*74
1501552833.53,33124,20.75,75004.0,8.67,-15.95,-16.37,0,*78
1501552834.8,33125,20.81,75006.0,8.67,-15.81,-16.23,0,*79
1501552836.05,33126,20.81,75004.5,8.67,-15.81,-16.45,0,*7A
1501552837.3,33127,20.81,75006.5,8.67,-15.89,-16.37,0,*76
1501552838.57,33128,20.75,75006.5,8.67,-15.89,-16.31,0,*7F
1501552839.81,33129,20.75,75006.0,8.69,-15.71,-16.09,0,*7C
1501552841.06,33130,20.81,75004.0,8.67,-15.75,-16.31,0,*75
1501552842.31,33131,20.81,75006.3,8.67,-15.75,-16.23,0,*77
1501552843.57,33132,20.81,75004.8,8.67,-15.63,-16.09,0,*7B
1501552844.82,33133,20.75,75004.0,8.69,-15.81,-16.23,0,*70
1501552846.09,33134,20.75,75004.5,8.67,-15.81,-16.23,0,*79
1501552847.36,33135,20.75,75004.5,8.67,-15.81,-16.23,0,*78
1501552848.6,33136,20.81,75006.3,8.69,-15.75,-16.09,0,*76
1501552849.85,33137,20.75,75006.8,8.67,-15.71,-16.23,0,*75
1501552851.12,33138,20.81,75006.3,8.67,-15.81,-16.31,0,*76
1501552852.35,33139,20.75,75006.5,8.69,-15.81,-16.37,0,*7F
1501552853.54,33140,20.81,75008.0,8.69,-15.95,-16.45,0,*71
1501552854.79,33141,20.81,75008.3,8.67,-15.89,-16.37,0,*76
1501552856.05,33142,20.75,75004.3,8.67,-15.75,-16.23,0,*73
1501552857.32,33143,20.81,75010.0,8.67,-15.81,-16.23,0,*79
1501552858.59,33144,20.81,75006.8,8.67,-15.81,-16.31,0,*7D
1501552859.87,33145,20.75,75006.5,8.67,-15.81,-16.23,0,*7F
1501552861.14,33146,20.75,75006.0,8.67,-15.81,-16.23,0,*7C
1501552862.4,33147,20.81,75008.8,8.67,-15.75,-16.17,0,*71
1501552863.64,33148,20.81,75008.3,8.67,-15.81,-16.37,0,*77
1501552864.89,33149,20.75,75008.3,8.67,-15.81,-16.37,0,*76
1501552866.14,33150,20.81,75008.5,8.69,-15.81,-16.31,0,*76
1501552867.36,33151,20.75,75008.3,8.67,-15.95,-16.45,0,*7F
1501552868.58,33152,20.75,75006.8,8.69,-15.89,-16.45,0,*7F
1501552869.78,33153,20.75,75004.8,8.69,-15.95,-16.37,0,*76
1501552871.04,33154,20.81,75006.0,8.67,-15.89,-16.37,0,*72
1501552872.31,33155,20.75,75004.0,8.67,-15.81,-16.31,0,*7D
1501552873.51,33156,20.81,75004.0,8.69,-15.95,-16.45,0,*76
1501552874.76,33157,20.81,75004.0,8.67,-15.89,-16.37,0,*71
1501552876.03,33158,20.81,75008.5,8.67,-15.81,-16.23,0,*73
1501552877.3,33159,20.81,75006.0,8.67,-15.81,-16.23,0,*72
1501552878.55,33160,20.75,75000.3,8.67,-15.95,-16.31,0,*7E
1501552879.81,33161,20.75,75000.0,8.67,-15.75,-16.23,0,*72
1501552881.08,33162,20.75,75000.0,8.67,-15.81,-16.17,0,*7D
1501552882.34,33163,20.75,75000.8,8.67,-15.71,-16.09,0,*7C
1501552883.59,33164,20.81,75000.3,8.67,-15.63,-16.09,0,*78
1501552884.85,33165,20.75,75002.0,8.67,-15.63,-16.09,0,*79
1501552886.11,33166,20.81,75002.8,8.67,-15.71,-16.09,0,*79
1501552887.36,33167,20.81,75006.5,8.67,-15.63,-16.09,0,*7B
1501552888.56,33168,20.75,75002.8,8.69,-15.63,-16.03,0,*70
1501552889.79,33169,20.81,75002.8,8.67,-15.63,-16.03,0,*7F
1501552891.04,33170,20.75,75002.8,8.67,-15.75,-16.23,0,*72
1501552892.3,33171,20.75,75006.3,8.67,-15.71,-16.09,0,*7F
1501552893.53,33172,20.81,75006.3,8.69,-15.75,-16.23,0,*7E
1501552894.79,33173,20.75,75004.8,8.67,-15.75,-16.09,0,*79
1501552896.02,33174,20.81,75006.3,8.69,-15.71,-16.17,0,*7B
1501552897.27,33175,20.75,75002.3,8.67,-15.89,-16.37,0,*71
1501552898.52,33176,20.81,75006.8,8.67,-15.89,-16.45,0,*77
1501552899.77,33177,20.81,75004.3,8.69,-15.81,-16.31,0,*73
1501552901.0,33178,20.75,75006.8,8.69,-15.63,-16.17,0,*74
1501552902.27,33179,20.81,75004.8,8.67,-15.81,-16.31,0,*73
1501552903.52,33180,20.75,75004.0,8.69,-15.81,-16.31,0,*7B
1501552904.77,33181,20.75,75006.0,8.67,-15.75,-16.23,0,*7C
1501552906.02,33182,20.75,75004.3,8.67,-15.71,-16.23,0,*7B
1501552907.27,33183,20.75,75004.0,8.67,-15.81,-16.45,0,*75
1501552908.54,33184,20.81,75004.0,8.67,-15.81,-16.31,0,*71
1501552909.79,33185,20.75,75006.0,8.67,-15.75,-16.23,0,*78
1501552911.05,33186,20.75,75004.0,8.67,-15.75,-16.17,0,*7C
1501552912.29,33187,20.75,75006.5,8.69,-15.75,-16.17,0,*73
1501552913.54,33188,20.75,75004.5,8.67,-15.75,-16.23,0,*75
1501552914.77,33189,20.81,75008.0,8.69,-15.75,-16.23,0,*7A
1501552916.0,33190,20.75,75008.3,8.69,-15.89,-16.37,0,*74
1501552917.23,33191,20.81,75008.5,8.69,-15.75,-16.31,0,*70
1501552918.49,33192,20.75,75006.5,8.67,-15.75,-16.17,0,*79
1501552919.74,33193,20.81,75010.8,8.67,-15.75,-16.23,0,*7F
1501552920.99,33194,20.81,75010.8,8.67,-15.71,-16.17,0,*7B
1501552922.27,33195,20.75,75010.5,8.67,-15.81,-16.31,0,*71
1501552923.47,33196,20.81,75010.5,8.69,-15.95,-16.37,0,*7F
1501552924.71,33197,20.75,75006.8,8.67,-15.89,-16.45,0,*78
1501552925.94,33198,20.81,75010.3,8.67,-15.95,-16.45,0,*7A
1501552927.16,33199,20.75,75010.0,8.67,-15.95,-16.45,0,*7B
1501552928.38,33200,20.75,75004.8,8.67,-15.95,-16.37,0,*7D
1501552929.58,33201,20.75,75006.5,8.69,-16.03,-16.45,0,*7B
1501552930.8,33202,20.75,75004.8,8.67,-15.95,-16.45,0,*7A
1501552932.01,33203,20.81,75010.3,8.65,-15.99,-16.51,0,*70
1501552933.24,33204,20.75,75006.0,8.65,-15.95,-16.51,0,*7B
1501552934.46,33205,20.75,75002.5,8.65,-15.99,-16.51,0,*76
1501552935.68,33206,20.75,75006.5,8.65,-15.99,-16.51,0,*75
1501552936.89,33207,20.75,75000.5,8.65,-15.99,-16.51,0,*74
1501552938.12,33208,20.75,75002.8,8.65,-15.95,-16.51,0,*77
1501552939.32,33209,20.81,75006.5,8.65,-15.99,-16.41,0,*7B
1501552940.52,33210,20.81,75002.5,8.65,-15.95,-16.41,0,*7F
1501552941.78,33211,20.81,75006.3,8.65,-15.85,-16.13,0,*78
1501552942.98,33212,20.75,75002.5,8.65,-15.67,-15.99,0,*76
1501552944.2,33213,20.75,75002.3,8.67,-15.63,-16.03,0,*71
1501552945.46,33214,20.81,75006.3,8.67,-15.63,-16.09,0,*7C
1501552946.71,33215,20.75,75004.0,8.67,-15.71,-16.09,0,*7E
1501552947.99,33216,20.81,75006.0,8.67,-15.57,-16.09,0,*79
1501552949.25,33217,20.81,75006.8,8.67,-15.63,-16.09,0,*7F
1501552950.47,33218,20.81,75006.3,8.67,-15.71,-16.03,0,*79
1501552951.72,33219,20.75,75002.3,8.67,-15.57,-16.03,0,*7C
1501552952.98,33220,20.81,75004.0,8.67,-15.63,-16.09,0,*7B
1501552954.24,33221,20.75,75004.3,8.67,-15.75,-16.09,0,*7D
1501552955.49,33222,20.75,75002.8,8.67,-15.63,-16.09,0,*79
1501552956.74,33223,20.75,75006.3,8.67,-15.95,-16.31,0,*7A
1501552958.02,33224,20.75,75004.8,8.67,-15.89,-16.23,0,*73
1501552959.29,33225,20.75,75002.8,8.67,-15.81,-16.31,0,*79
1501552960.57,33226,20.81,75004.3,8.67,-15.89,-16.31,0,*72
1501552961.82,33227,20.75,75000.5,8.69,-15.81,-16.31,0,*75
1501552963.04,33228,20.81,75004.0,8.67,-15.95,-16.37,0,*77
1501552964.3,33229,20.75,75002.8,8.67,-15.63,-16.17,0,*7D
1501552965.55,33230,20.81,75002.8,8.67,-15.63,-16.09,0,*7A
1501552966.83,33231,20.75,75000.8,8.67,-15.81,-16.31,0,*7C
1501552968.08,33232,20.81,75002.3,8.67,-15.75,-16.17,0,*70
1501552969.34,33233,20.81,75000.3,8.67,-15.71,-16.17,0,*75
1501552970.57,33234,20.75,75002.8,8.67,-15.63,-16.03,0,*74
1501552971.82,33235,20.75,75000.0,8.67,-15.71,-16.09,0,*7C
1501552973.07,33236,20.75,75002.3,8.67,-15.57,-16.03,0,*71
1501552974.32,33237,20.81,75006.0,8.67,-15.71,-16.17,0,*71
1501552975.57,33238,20.75,75002.3,8.67,-15.71,-16.23,0,*79
1501552976.85,33239,20.75,75002.3,8.67,-15.81,-16.17,0,*70
1501552978.08,33240,20.75,75006.0,8.69,-15.75,-16.31,0,*7F
1501552979.33,33241,20.75,75004.0,8.67,-15.89,-16.37,0,*75
1501552980.56,33242,20.75,75004.3,8.67,-15.95,-16.37,0,*7B
1501552981.78,33243,20.81,75010.3,8.67,-15.95,-16.45,0,*7F
1501552982.98,33244,20.75,75004.8,8.65,-15.95,-16.41,0,*7E
1501552984.19,33245,20.81,75008.0,8.65,-15.95,-16.41,0,*7F
1501552985.46,33246,20.75,75006.0,8.67,-15.81,-16.31,0,*7C
1501552986.73,33247,20.81,75010.3,8.67,-15.81,-16.23,0,*7E
1501552988.0,33248,20.81,75010.0,8.67,-15.81,-16.23,0,*71
1501552989.26,33249,20.81,75008.8,8.67,-15.75,-16.23,0,*7B
1501552990.51,33250,20.75,75006.0,8.67,-15.71,-16.09,0,*7F
1501552991.74,33251,20.75,75006.3,8.65,-15.81,-16.37,0,*7E
1501552992.96,33252,20.75,75008.8,8.67,-15.95,-16.37,0,*7A
1501552994.18,33253,20.75,75004.3,8.67,-15.95,-16.45,0,*7E
1501552995.4,33254,20.75,75006.8,8.67,-16.03,-16.45,0,*75
1501552996.68,33255,20.75,75004.0,8.67,-15.89,-16.23,0,*75
1501552997.95,33256,20.81,75006.0,8.67,-15.81,-16.23,0,*7E
1501552999.22,33257,20.81,75008.3,8.67,-15.81,-16.31,0,*7C
1501553000.5,33258,20.75,75004.3,8.67,-15.81,-16.31,0,*73
1501553001.77,33259,20.75,75006.3,8.67,-15.81,-16.23,0,*71
1501553003.04,33260,20.75,75006.3,8.67,-15.81,-16.23,0,*7B
1501553004.27,33261,20.75,75006.5,8.65,-15.81,-16.37,0,*7D
1501553005.5,33262,20.75,75006.5,8.65,-15.75,-16.13,0,*73
1501553006.75,33263,20.75,75002.3,8.67,-15.71,-16.17,0,*70
1501553008.01,33264,20.81,75008.3,8.67,-15.71,-16.09,0,*78
1501553009.29,33265,20.75,75004.0,8.67,-15.81,-16.17,0,*79
1501553010.54,33266,20.75,75006.0,8.67,-15.63,-16.09,0,*79
1501553011.82,33267,20.75,75006.8,8.67,-15.81,-16.17,0,*7B
1501553013.08,33268,20.81,75010.5,8.67,-15.71,-16.09,0,*74
1501553014.33,33269,20.75,75008.3,8.67,-15.63,-16.09,0,*76
1501553015.56,33270,20.81,75008.3,8.69,-15.75,-16.31,0,*7C
1501553016.82,33271,20.75,75004.8,8.67,-15.75,-16.23,0,*70
1501553018.07,33272,20.75,75004.5,8.67,-15.75,-16.17,0,*74
1501553019.35,33273,20.75,75004.8,8.67,-15.81,-16.31,0,*7A
1501553020.6,33274,20.75,75006.3,8.67,-15.75,-16.23,0,*75
1501553021.85,33275,20.75,75002.3,8.67,-15.75,-16.23,0,*74
1501553023.11,33276,20.75,75000.0,8.67,-15.75,-16.23,0,*77
1501553024.36,33277,20.75,75002.5,8.67,-15.63,-16.17,0,*76
1501553025.61,33278,20.75,75000.5,8.67,-15.57,-16.03,0,*7B
1501553026.87,33279,20.75,75002.0,8.67,-15.71,-16.17,0,*7B
1501553028.14,33280,20.75,75006.3,8.67,-15.81,-16.31,0,*76
1501553029.39,33281,20.75,75004.8,8.67,-15.75,-16.23,0,*7F
1501553030.65,33282,20.75,75000.5,8.67,-15.71,-16.17,0,*7F
1501553031.89,33283,20.75,75004.8,8.67,-15.81,-16.45,0,*76
1501553033.17,33284,20.75,75004.0,8.67,-15.89,-16.31,0,*7A
1501553034.44,33285,20.75,75004.3,8.67,-15.81,-16.31,0,*73
1501553035.66,33286,20.75,75002.3,8.67,-15.95,-16.37,0,*73
1501553036.94,33287,20.75,75002.8,8.67,-15.81,-16.23,0,*72
1501553038.21,33288,20.75,75002.8,8.67,-15.81,-16.31,0,*7E
1501553039.48,33289,20.75,75002.3,8.67,-15.89,-16.31,0,*77
1501553040.71,33290,20.75,75006.3,8.67,-15.63,-16.03,0,*7A
1501553041.97,33291,20.75,75002.5,8.67,-15.75,-16.17,0,*79
1501553043.22,33292,20.75,75002.0,8.67,-15.71,-16.17,0,*7E
1501553044.45,33293,20.81,75004.3,8.67,-15.63,-16.03,0,*79
1501553045.7,33294,20.75,75002.3,8.67,-15.71,-16.17,0,*78
1501553046.96,33295,20.75,75006.8,8.67,-15.71,-16.09,0,*76
1501553048.22,33296,20.75,75002.5,8.67,-15.75,-16.17,0,*7E
1501553049.45,33297,20.75,75000.0,8.69,-15.75,-16.17,0,*71
1501553050.71,33298,20.81,75004.0,8.67,-15.71,-16.09,0,*7B
1501553051.96,33299,20.75,75006.8,8.67,-15.71,-16.17,0,*75
1501553053.19,33300,20.81,75006.5,8.69,-15.75,-16.23,0,*79
1501553054.45,33301,20.81,75006.8,8.67,-15.75,-16.31,0,*75
1501553055.72,33302,20.75,75006.3,8.67,-15.81,-16.23,0,*7E
1501553056.99,33303,20.75,75004.3,8.67,-15.81,-16.23,0,*7F
1501553058.23,33304,20.75,75006.3,8.69,-15.75,-16.17,0,*7A
1501553059.48,33305,20.75,75008.3,8.67,-15.71,-16.17,0,*71
1501553060.71,33306,20.75,75010.3,8.69,-15.75,-16.23,0,*7F
1501553061.97,33307,20.75,75006.8,8.67,-15.71,-16.17,0,*73
1501553063.19,33308,20.75,75010.3,8.69,-15.71,-16.23,0,*75
1501553064.47,33309,20.81,75014.0,8.67,-15.81,-16.17,0,*72
1501553065.72,33310,20.75,75010.0,8.67,-15.71,-16.23,0,*72
1501553066.98,33311,20.75,75008.0,8.67,-15.71,-16.17,0,*74
1501553068.23,33312,20.75,75010.5,8.67,-15.75,-16.23,0,*74
1501553069.5,33313,20.81,75012.5,8.67,-15.81,-16.31,0,*7D
1501553070.72,33314,20.75,75010.3,8.67,-15.95,-16.45,0,*7C
1501553072.0,33315,20.75,75010.8,8.67,-15.89,-16.23,0,*70
1501553073.25,33316,20.75,75008.0,8.67,-15.75,-16.23,0,*70
1501553074.53,33317,20.75,75008.5,8.67,-15.89,-16.23,0,*72
1501553075.81,33318,20.75,75010.8,8.67,-15.89,-16.23,0,*7D
1501553077.01,33319,20.81,75010.0,8.69,-15.95,-16.37,0,*7A
1501553078.23,33320,20.75,75008.5,8.67,-15.95,-16.37,0,*7E
1501553079.5,33321,20.75,75008.3,8.67,-15.81,-16.31,0,*7C
1501553080.78,33322,20.81,75010.5,8.67,-15.81,-16.23,0,*7C
1501553082.04,33323,20.75,75008.3,8.67,-15.75,-16.09,0,*7E
1501553083.31,33324,20.75,75006.8,8.67,-15.81,-16.31,0,*79
1501553084.54,33325,20.81,75008.8,8.69,-15.89,-16.37,0,*78
1501553085.79,33326,20.75,75006.0,8.67,-15.75,-16.23,0,*73
1501553087.07,33327,20.75,75000.8,8.67,-15.81,-16.17,0,*7E
1501553088.33,33328,20.75,75004.3,8.67,-15.75,-16.09,0,*75
1501553089.58,33329,20.75,75000.3,8.69,-15.81,-16.23,0,*79
1501553090.83,33330,20.75,75006.8,8.67,-15.75,-16.23,0,*74
1501553092.09,33331,20.75,75006.3,8.67,-15.75,-16.17,0,*72
1501553093.35,33332,20.75,75000.5,8.67,-15.75,-16.17,0,*71
1501553094.6,33333,20.75,75004.5,8.67,-15.75,-16.23,0,*77
1501553095.85,33334,20.75,75004.0,8.67,-15.75,-16.23,0,*70
1501553097.13,33335,20.81,75006.3,8.67,-15.81,-16.31,0,*79
1501553098.38,33336,20.75,75004.8,8.67,-15.89,-16.37,0,*74
1501553099.6,33337,20.75,75006.3,8.69,-15.89,-16.37,0,*7B
1501553100.88,33338,20.75,75006.0,8.67,-15.81,-16.23,0,*77
1501553102.1,33339,20.75,75006.5,8.67,-15.95,-16.45,0,*73
1501553103.32,33340,20.75,75002.5,8.67,-15.95,-16.45,0,*7D
1501553104.56,33341,20.75,75004.8,8.67,-16.03,-16.51,0,*75
1501553105.81,33342,20.75,75004.0,8.67,-16.03,-16.51,0,*76
1501553107.06,33343,20.75,75006.5,8.67,-15.89,-16.37,0,*76
1501553108.31,33344,20.75,75002.8,8.65,-15.81,-16.27,0,*7A
1501553109.58,33345,20.75,75002.8,8.67,-15.81,-16.31,0,*7E
1501553110.84,33346,20.75,75006.5,8.67,-15.75,-16.23,0,*75
1501553112.09,33347,20.75,75006.3,8.65,-15.85,-16.27,0,*7D
1501553113.35,33348,20.75,75004.3,8.65,-15.85,-16.27,0,*72
1501553114.58,33349,20.75,75004.3,8.69,-15.75,-16.23,0,*74
1501553115.81,33350,20.75,75004.0,8.69,-15.63,-16.09,0,*73
1501553117.07,33351,20.75,75002.8,8.67,-15.75,-16.09,0,*7B
1501553118.32,33352,20.75,75000.0,8.67,-15.71,-16.09,0,*7C
1501553119.6,33353,20.75,75002.3,8.67,-15.81,-16.17,0,*7D
1501553120.84,33354,20.75,75002.0,8.69,-15.75,-16.09,0,*70
1501553122.08,33355,20.81,75008.3,8.67,-15.57,-16.03,0,*75
1501553123.31,33356,20.75,75004.3,8.67,-15.71,-16.03,0,*72
1501553124.54,33357,20.81,75008.8,8.67,-15.63,-16.03,0,*70
1501553125.79,33358,20.75,75004.0,8.67,-15.71,-16.17,0,*79
1501553127.05,33359,20.75,75008.0,8.67,-15.75,-16.17,0,*7C
1501553128.3,33360,20.75,75010.0,8.69,-15.81,-16.31,0,*77
1501553129.55,33361,20.75,75004.0,8.69,-15.81,-16.23,0,*75
1501553130.8,33362,20.75,75006.3,8.67,-15.89,-16.45,0,*70
1501553132.05,33363,20.81,75010.8,8.67,-15.89,-16.37,0,*74
1501553133.32,33364,20.81,75008.0,8.67,-15.89,-16.31,0,*75
1501553134.52,33365,20.75,75006.0,8.69,-15.95,-16.45,0,*74
1501553135.74,33366,20.81,75010.5,8.67,-15.95,-16.45,0,*79
1501553136.99,33367,20.75,75004.5,8.67,-15.95,-16.51,0,*7D
1501553138.24,33368,20.81,75008.0,8.67,-16.03,-16.51,0,*7E
1501553139.46,33369,20.75,75008.5,8.67,-15.95,-16.45,0,*76
1501553140.7,33370,20.81,75012.5,8.67,-15.89,-16.45,0,*73
1501553141.93,33371,20.75,75006.8,8.67,-15.95,-16.37,0,*7A
1501553143.16,33372,20.75,75010.3,8.69,-15.75,-16.23,0,*7C
1501553144.38,33373,20.75,75008.5,8.67,-15.95,-16.37,0,*78
1501553145.6,33374,20.81,75014.0,8.67,-15.95,-16.45,0,*7A
1501553146.82,33375,20.75,75008.3,8.67,-15.95,-16.45,0,*7B
1501553148.04,33376,20.75,75004.3,8.67,-15.95,-16.45,0,*78
1501553149.26,33377,20.75,75006.3,8.67,-16.03,-16.45,0,*75
1501553150.48,33378,20.75,75004.0,8.67,-16.03,-16.45,0,*7A
1501553151.68,33379,20.75,75006.0,8.65,-15.99,-16.41,0,*7D
1501553152.94,33380,20.81,75008.8,8.65,-16.09,-16.51,0,*70
1501553154.15,33381,20.75,75004.5,8.65,-15.99,-16.51,0,*7B
1501553155.35,33382,20.75,75006.0,8.65,-15.99,-16.41,0,*79
1501553156.58,33383,20.75,75004.8,8.65,-15.85,-16.41,0,*75
1501553157.83,33384,20.75,75004.8,8.65,-15.81,-16.23,0,*72
1501553159.06,33385,20.75,75004.0,8.65,-15.75,-16.13,0,*7B
1501553160.32,33386,20.75,75004.5,8.67,-15.71,-16.17,0,*7A
1501553161.58,33387,20.81,75004.0,8.67,-15.63,-16.09,0,*77
1501553162.83,33388,20.81,75006.3,8.67,-15.57,-15.95,0,*79
1501553164.05,33389,20.75,75000.5,8.65,-15.67,-16.13,0,*74
1501553165.29,33390,20.75,75002.8,8.65,-15.67,-16.09,0,*77
1501553166.51,33391,20.75,75004.5,8.67,-15.63,-16.03,0,*7A
1501553167.74,33392,20.75,75004.5,8.67,-15.49,-16.03,0,*71
1501553168.96,33393,20.75,75000.8,8.67,-15.71,-16.03,0,*7B
1501553170.22,33394,20.75,75002.3,8.67,-15.75,-16.17,0,*7D
1501553171.47,33395,20.75,75004.3,8.67,-15.75,-16.23,0,*7B
1501553172.75,33396,20.75,75004.3,8.67,-15.89,-16.23,0,*7B
1501553174.01,33397,20.81,75006.0,8.67,-15.75,-16.23,0,*79
1501553175.23,33398,20.75,75002.8,8.67,-15.95,-16.37,0,*7D
1501553176.45,33399,20.75,75004.3,8.67,-15.95,-16.45,0,*79
1501553177.67,33400,20.81,75008.8,8.67,-15.95,-16.45,0,*7E
1501553178.89,33401,20.75,75006.8,8.67,-15.95,-16.37,0,*7A
1501553180.17,33402,20.81,75008.3,8.67,-15.81,-16.31,0,*7A
1501553181.44,33403,20.81,75008.0,8.67,-15.81,-16.31,0,*7B
1501553182.69,33404,20.75,75006.5,8.67,-15.71,-16.17,0,*77
1501553183.95,33405,20.75,75006.8,8.65,-15.85,-16.27,0,*7C
1501553185.2,33406,20.75,75006.8,8.65,-15.81,-16.27,0,*7B
1501553186.47,33407,20.75,75008.5,8.67,-15.81,-16.23,0,*7C
1501553187.75,33408,20.75,75006.5,8.67,-15.89,-16.31,0,*78
1501553189.02,33409,20.81,75010.5,8.67,-15.81,-16.23,0,*72
1501553190.27,33410,20.75,75004.3,8.65,-15.81,-16.27,0,*7C
1501553191.52,33411,20.75,75008.3,8.65,-15.85,-16.27,0,*79
1501553192.73,33412,20.75,75010.3,8.65,-15.95,-16.37,0,*7A
1501553193.92,33413,20.81,75008.5,8.65,-15.99,-16.41,0,*76
1501553195.15,33414,20.75,75006.5,8.67,-15.95,-16.37,0,*7E
1501553196.42,33415,20.75,75010.5,8.67,-15.89,-16.31,0,*74
1501553197.68,33416,20.75,75006.8,8.67,-15.75,-16.31,0,*74
1501553198.9,33417,20.75,75008.3,8.67,-15.95,-16.37,0,*7D
1501553200.12,33418,20.75,75006.5,8.67,-15.95,-16.45,0,*77
1501553201.35,33419,20.75,75006.0,8.67,-15.95,-16.37,0,*73
1501553202.6,33420,20.75,75004.3,8.67,-15.89,-16.37,0,*74
1501553203.87,33421,20.75,75004.5,8.67,-15.81,-16.31,0,*7B
1501553205.14,33422,20.75,75004.3,8.67,-15.81,-16.31,0,*78
1501553206.41,33423,20.75,75002.5,8.67,-15.81,-16.23,0,*7A
1501553207.69,33424,20.75,75002.8,8.67,-15.81,-16.31,0,*7E
1501553208.94,33425,20.75,75000.8,8.65,-15.85,-16.27,0,*7E
1501553210.17,33426,20.75,75002.3,8.65,-15.95,-16.27,0,*7C
1501553211.42,33427,20.75,75000.0,8.65,-15.81,-16.27,0,*78
1501553212.64,33428,20.75,75000.5,8.67,-15.63,-16.03,0,*7F
1501553213.87,33429,20.75,75000.0,8.65,-15.75,-16.23,0,*79
1501553215.1,33430,20.75,75004.3,8.65,-15.75,-16.23,0,*71
1501553216.36,33431,20.75,75000.3,8.67,-15.75,-16.09,0,*7A
1501553217.64,33432,20.75,75004.5,8.67,-15.81,-16.17,0,*7D
1501553218.9,33433,20.75,75000.3,8.67,-15.75,-16.09,0,*78
1501553220.17,33434,20.75,75006.0,8.67,-15.81,-16.23,0,*7C
1501553221.4,33435,20.75,75002.0,8.69,-15.75,-16.23,0,*78
1501553222.63,33436,20.75,75004.8,8.67,-15.95,-16.37,0,*7E
1501553223.87,33437,20.75,75006.8,8.67,-15.89,-16.45,0,*77
1501553225.12,33438,20.75,75008.5,8.67,-15.81,-16.37,0,*75
1501553226.34,33439,20.75,75004.8,8.67,-15.95,-16.37,0,*71
1501553227.59,33440,20.75,75006.0,8.67,-15.89,-16.37,0,*72
1501553228.87,33441,20.75,75004.5,8.67,-15.81,-16.31,0,*7D
1501553230.14,33442,20.75,75006.3,8.67,-15.81,-16.31,0,*7E
1501553231.39,33443,20.75,75008.8,8.67,-15.89,-16.37,0,*71
1501553232.62,33444,20.75,75010.0,8.69,-15.89,-16.37,0,*78
1501553233.84,33445,20.75,75010.3,8.67,-15.95,-16.45,0,*7F
1501553235.06,33446,20.75,75010.8,8.67,-15.95,-16.37,0,*79
1501553236.31,33447,20.75,75010.8,8.67,-15.89,-16.37,0,*75
1501553237.54,33448,20.75,75008.0,8.67,-15.95,-16.37,0,*77
1501553238.76,33449,20.75,75012.5,8.67,-15.95,-16.37,0,*76
1501553239.98,33450,20.75,75010.0,8.67,-15.95,-16.37,0,*7E
1501553241.18,33451,20.75,75008.0,8.69,-15.95,-16.45,0,*74
1501553242.43,33452,20.75,75008.5,8.67,-16.03,-16.51,0,*70
1501553243.65,33453,20.75,75006.0,8.67,-15.95,-16.37,0,*7D
1501553244.87,33454,20.75,75012.0,8.67,-15.95,-16.45,0,*7F
1501553246.13,33455,20.75,75006.3,8.67,-15.89,-16.37,0,*76
1501553247.33,33456,20.75,75010.0,8.69,-15.95,-16.37,0,*76
1501553248.55,33457,20.75,75008.3,8.67,-15.95,-16.37,0,*79
1501553249.77,33458,20.75,75006.8,8.67,-15.95,-16.45,0,*73
1501553250.99,33459,20.75,75006.3,8.67,-15.95,-16.45,0,*72
1501553252.21,33460,20.75,75008.8,8.65,-15.99,-16.51,0,*73
1501553253.41,33461,20.75,75010.8,8.65,-15.95,-16.37,0,*7E
1501553254.65,33462,20.75,75010.8,8.63,-15.99,-16.51,0,*77
1501553255.85,33463,20.75,75010.0,8.65,-15.99,-16.41,0,*71
1501553257.05,33464,20.75,75008.0,8.65,-15.95,-16.37,0,*7B
1501553258.3,33465,20.75,75010.0,8.65,-15.85,-16.27,0,*7A
1501553259.56,33466,20.75,75010.8,8.69,-15.89,-16.31,0,*7E
1501553260.78,33467,20.75,75012.0,8.65,-15.95,-16.27,0,*79
1501553261.98,33468,20.75,75010.0,8.65,-15.95,-16.37,0,*77
1501553263.2,33469,20.75,75008.3,8.65,-15.99,-16.51,0,*7A
1501553264.42,33470,20.75,75010.3,8.65,-15.99,-16.51,0,*72
1501553265.63,33471,20.75,75006.8,8.65,-15.95,-16.41,0,*7E
1501553266.82,33472,20.75,75008.0,8.65,-15.99,-16.37,0,*70
1501553268.02,33473,20.75,75006.5,8.65,-15.99,-16.41,0,*70
1501553269.22,33474,20.75,75006.8,8.65,-15.99,-16.41,0,*77
1501553270.46,33475,20.75,75004.0,8.63,-15.95,-16.51,0,*7D
1501553271.69,33476,20.75,75004.0,8.63,-15.95,-16.41,0,*7F
1501553272.89,33477,20.75,75000.8,8.65,-15.99,-16.41,0,*74
1501553274.11,33478,20.75,75000.8,8.65,-15.99,-16.51,0,*7A
1501553275.33,33479,20.75,75000.3,8.63,-15.95,-16.41,0,*70
1501553276.59,33480,20.75,75002.5,8.65,-15.85,-16.27,0,*71
1501553277.82,33481,20.75,75000.5,8.65,-15.95,-16.27,0,*71
1501553279.04,33482,20.75,75006.8,8.65,-15.81,-16.37,0,*76
1501553280.29,33483,20.75,75002.5,8.65,-15.81,-16.27,0,*76
1501553281.55,33484,20.75,75006.0,8.63,-15.75,-16.13,0,*7B
1501553282.8,33485,20.75,75006.8,8.65,-15.81,-16.27,0,*70
1501553284.03,33486,20.75,75004.3,8.65,-15.75,-16.13,0,*7F
1501553285.26,33487,20.75,75004.0,8.65,-15.85,-16.37,0,*77
1501553286.51,33488,20.75,75006.0,8.65,-15.81,-16.27,0,*7D
1501553287.73,33489,20.75,75004.8,8.65,-15.85,-16.37,0,*79
1501553288.99,33490,20.75,75002.8,8.65,-15.85,-16.27,0,*70
1501553290.19,33491,20.75,75002.8,8.65,-15.95,-16.41,0,*70
1501553291.45,33492,20.75,75008.5,8.65,-15.85,-16.27,0,*72
1501553292.67,33493,20.75,75006.5,8.65,-15.85,-16.37,0,*72
1501553293.9,33494,20.75,75010.0,8.65,-15.95,-16.51,0,*74
1501553295.12,33495,20.75,75006.0,8.65,-15.95,-16.27,0,*74
1501553296.38,33496,20.75,75002.8,8.65,-15.89,-16.31,0,*7D
1501553297.6,33497,20.75,75004.3,8.65,-15.99,-16.51,0,*7B
1501553298.81,33498,20.75,75010.8,8.65,-15.99,-16.51,0,*74
1501553300.02,33499,20.81,75012.5,8.65,-15.95,-16.41,0,*78
1501553301.27,33500,20.75,75006.3,8.65,-15.81,-16.27,0,*7C
1501553302.52,33501,20.75,75010.8,8.65,-15.85,-16.27,0,*79
1501553303.77,33502,20.75,75008.0,8.65,-15.85,-16.27,0,*7A
1501553305.03,33503,20.75,75008.5,8.65,-15.81,-16.27,0,*7F